Orbital Elements at Epoch 2459200.5 (2020-Dec-17.0) TDB
Reference: JPL 16 (heliocentric ecliptic J2000)
Element | Value | Uncertainty (1-sigma) | Units |
e | .1261155054973594 | 4.1592e-08 | |
a | 2.341998618240742 | 1.1699e-08 | au |
q | 2.046636278627193 | 9.5431e-08 | au |
i | 3.588960173234158 | 4.335e-06 | deg |
node | 42.46866190199357 | 6.9791e-05 | deg |
peri | 315.3892659534238 | 7.1891e-05 | deg |
M | 242.7256368752914 | 1.7152e-05 | deg |
tp | 2459626.960646536954 (2022-Feb-16.46064654) | 6.3363e-05 | TDB |
period | 1309.11674694021 3.58 | 9.8095e-06 2.686e-08 | d yr |
n | .2749945723644782 | 2.0606e-09 | deg/d |
Q | 2.63736095785429 | 1.3175e-08 | au |
|
| | Orbit Determination Parameters
Additional Information
|